Date String (YYYY-MM-DD hh:mm:ss) UTC,Instrument flags,absolute air pressure of the measurement (hPa),sample flow rate (lpm),inlet stack bypass flow (lpm),air temperature of the measurement (°C),ambient temperature measured by the external sensor (°C),aerosol sample conditioner tube jacket temperature (°C),OPC LED temperature (°C),internal box temperature (°C),relative humidity of the measurement (%),span deviation,mass concentration of particles derived from Lorenz-Mie calculation of OPC scattering (μg/m³),mass concentration of particles derived from Lorenz-Mie calculation of OPC scattering (μg/m³),mass concentration of particles derived from Lorenz-Mie calculation of OPC scattering (μg/m³)
DateTimeUTC,F1_M11,P_M11,Q1_M11,Q2_M11,T1_M11,T2_M11,T3_M11,T4_M11,T5_M11,U1_M11,ZSPAN_M11,X0_M11,X2_M11,X1_M11
2023-10-10 19:00:00,SystemResetWarning,0822.0,5.00,000.00,028.2,026.0,000.0,036.6,029.9,8.4,0000.0,0008.09,0002.94,0002.45
2023-10-10 19:01:00,SystemResetWarning,0822.0,5.00,000.00,028.2,026.4,000.0,036.7,030.0,8.3,0000.0,0008.53,0002.98,0002.45
2023-10-10 19:02:00,SystemResetWarning,0822.0,5.01,000.00,028.3,026.7,000.0,036.7,030.1,8.3,0000.0,0008.11,0002.95,0002.44
2023-10-10 19:03:00,SystemResetWarning,0822.0,5.00,000.00,028.3,027.0,000.0,036.7,030.1,8.3,0000.0,0007.94,0002.90,0002.42
2023-10-10 19:04:00,SystemResetWarning,0822.0,4.99,000.00,028.4,026.8,000.0,036.7,030.2,8.5,0000.0,0007.94,0002.92,0002.41
2023-10-10 19:05:00,SystemResetWarning,0821.9,4.99,000.00,028.3,025.3,000.0,036.6,030.0,8.5,0000.0,0007.17,0002.94,0002.44
2023-10-10 19:06:00,SystemResetWarning,0822.0,5.01,000.00,028.2,024.5,000.0,036.6,029.9,8.6,0000.0,0006.96,0002.94,0002.47
2023-10-10 19:07:00,SystemResetWarning,0822.0,5.01,000.00,028.2,024.7,000.0,036.6,029.8,8.6,0000.0,0006.81,0002.95,0002.47
2023-10-10 19:08:00,SystemResetWarning,0821.9,5.00,000.00,028.1,025.1,000.0,036.6,029.7,8.5,0000.0,0007.07,0002.96,0002.48
2023-10-10 19:09:00,SystemResetWarning,0821.8,5.00,000.00,028.1,025.5,000.0,036.6,029.7,8.5,0000.0,0007.43,0002.99,0002.49
2023-10-10 19:10:00,SystemResetWarning,0821.8,5.01,000.00,028.1,025.9,000.0,036.6,029.8,8.3,0000.0,0007.78,0003.00,0002.51
2023-10-10 19:11:00,SystemResetWarning,0821.8,5.00,000.00,028.2,026.3,000.0,036.6,029.9,8.3,0000.0,0007.12,0003.02,0002.53
2023-10-10 19:12:00,SystemResetWarning,0821.6,4.99,000.00,028.2,026.6,000.0,036.6,030.0,8.1,0000.0,0006.52,0003.04,0002.59
2023-10-10 19:13:00,SystemResetWarning,0821.8,5.00,000.00,028.2,026.9,000.0,036.6,030.1,8.3,0000.0,0006.70,0003.10,0002.65
2023-10-10 19:14:00,SystemResetWarning,0821.8,5.00,000.00,028.3,027.1,000.0,036.7,030.1,8.1,0000.0,0006.99,0003.17,0002.71
2023-10-10 19:15:00,SystemResetWarning,0821.7,5.00,000.00,028.3,027.1,000.0,036.7,030.2,8.1,0000.0,0006.77,0003.15,0002.72
2023-10-10 19:16:00,SystemResetWarning,0821.8,5.00,000.00,028.3,025.8,000.0,036.7,030.1,8.0,0000.0,0006.54,0003.13,0002.70
2023-10-10 19:17:00,SystemResetWarning,0821.7,5.00,000.00,028.2,024.6,000.0,036.6,029.8,8.0,0000.0,0006.07,0003.12,0002.71
2023-10-10 19:18:00,SystemResetWarning,0821.7,5.01,000.00,028.2,024.8,000.0,036.5,029.8,8.0,0000.0,0006.06,0003.14,0002.77
2023-10-10 19:19:00,SystemResetWarning,0821.7,5.01,000.00,028.1,025.1,000.0,036.5,029.7,8.0,0000.0,0005.74,0003.18,0002.84
2023-10-10 19:20:00,SystemResetWarning,0821.6,5.00,000.00,028.1,025.5,000.0,036.6,029.7,7.8,0000.0,0005.53,0003.23,0002.91
2023-10-10 19:21:00,SystemResetWarning,0821.6,5.01,000.00,028.1,025.9,000.0,036.6,029.8,8.0,0000.0,0004.88,0003.26,0002.98
2023-10-10 19:22:00,SystemResetWarning,0821.6,5.00,000.00,028.1,026.3,000.0,036.6,029.9,8.3,0000.0,0004.69,0003.29,0003.06
2023-10-10 19:23:00,SystemResetWarning,0821.5,5.01,000.00,028.2,026.6,000.0,036.6,030.0,8.4,0000.0,0004.68,0003.35,0003.13
2023-10-10 19:24:00,SystemResetWarning,0821.5,5.00,000.00,028.2,026.8,000.0,036.6,030.0,8.4,0000.0,0004.64,0003.39,0003.17
2023-10-10 19:25:00,SystemResetWarning,0821.5,5.00,000.00,028.3,027.1,000.0,036.7,030.1,8.4,0000.0,0004.56,0003.42,0003.22
2023-10-10 19:26:00,SystemResetWarning,0821.6,4.99,000.00,028.3,026.7,000.0,036.7,030.2,8.2,0000.0,0004.58,0003.48,0003.29
2023-10-10 19:27:00,SystemResetWarning,0821.8,5.00,000.00,028.3,025.1,000.0,036.6,029.9,8.3,0000.0,0004.81,0003.59,0003.40
2023-10-10 19:28:00,SystemResetWarning,0822.0,5.01,000.00,028.2,024.4,000.0,036.5,029.8,8.0,0000.0,0005.26,0003.72,0003.50
2023-10-10 19:29:00,SystemResetWarning,0822.0,5.01,000.00,028.2,024.7,000.0,036.5,029.7,8.1,0000.0,0006.37,0003.86,0003.60
2023-10-10 19:30:00,SystemResetWarning,0822.0,5.00,000.00,028.1,025.1,000.0,036.5,029.7,8.2,0000.0,0006.99,0003.96,0003.68
2023-10-10 19:31:00,SystemResetWarning,0822.1,5.00,000.00,028.1,025.5,000.0,036.5,029.7,7.7,0000.0,0007.19,0004.02,0003.78
2023-10-10 19:32:00,SystemResetWarning,0821.9,5.00,000.00,028.1,025.9,000.0,036.6,029.8,7.9,0000.0,0007.88,0004.14,0003.88
2023-10-10 19:33:00,SystemResetWarning,0821.5,5.00,000.00,028.1,026.3,000.0,036.6,029.9,8.0,0000.0,0008.56,0004.21,0003.94
2023-10-10 19:34:00,SystemResetWarning,0821.4,4.99,000.00,028.2,026.6,000.0,036.6,030.0,8.0,0000.0,0009.11,0004.28,0004.01
2023-10-10 19:35:00,SystemResetWarning,0821.4,5.00,000.00,028.2,026.9,000.0,036.6,030.1,7.8,0000.0,0009.51,0004.41,0004.10
2023-10-10 19:36:00,SystemResetWarning,0821.4,5.00,000.00,028.3,027.1,000.0,036.6,030.2,7.6,0000.0,0009.58,0004.48,0004.18
2023-10-10 19:37:00,SystemResetWarning,0821.3,4.99,000.00,028.3,027.0,000.0,036.6,030.2,7.6,0000.0,0009.79,0004.59,0004.27
2023-10-10 19:38:00,SystemResetWarning,0821.3,5.00,000.00,028.3,025.4,000.0,036.6,030.0,7.8,0000.0,0009.86,0004.64,0004.32
2023-10-10 19:39:00,SystemResetWarning,0821.2,5.00,000.00,028.2,024.5,000.0,036.5,029.9,7.8,0000.0,0010.18,0004.66,0004.34
2023-10-10 19:40:00,SystemResetWarning,0821.2,5.01,000.00,028.2,024.7,000.0,036.5,029.8,7.8,0000.0,0009.89,0004.67,0004.36
2023-10-10 19:41:00,SystemResetWarning,0821.1,5.00,000.00,028.1,025.0,000.0,036.5,029.6,8.3,0000.0,0009.68,0004.71,0004.41
2023-10-10 19:42:00,SystemResetWarning,0821.2,4.99,000.00,028.1,025.4,000.0,036.5,029.7,7.9,0000.0,0009.65,0004.77,0004.46
2023-10-10 19:43:00,SystemResetWarning,0821.4,5.00,000.00,028.1,025.9,000.0,036.6,029.8,7.6,0000.0,0009.26,0004.83,0004.50
2023-10-10 19:44:00,SystemResetWarning,0821.4,5.01,000.00,028.1,026.2,000.0,036.6,029.9,7.5,0000.0,0008.76,0004.89,0004.57
2023-10-10 19:45:00,SystemResetWarning,0821.1,5.02,000.00,028.2,026.5,000.0,036.6,030.0,7.4,0000.0,0008.31,0004.92,0004.60
2023-10-10 19:46:00,SystemResetWarning,0821.2,4.99,000.00,028.2,026.8,000.0,036.6,030.0,7.4,0000.0,0008.08,0004.94,0004.63
2023-10-10 19:47:00,SystemResetWarning,0821.3,4.99,000.00,028.3,027.1,000.0,036.6,030.1,7.5,0000.0,0008.10,0004.97,0004.67
2023-10-10 19:48:00,SystemResetWarning,0821.3,5.00,000.00,028.3,026.5,000.0,036.6,030.1,7.7,0000.0,0008.12,0005.01,0004.69
2023-10-10 19:49:00,SystemResetWarning,0821.1,5.01,000.00,028.2,024.9,000.0,036.6,029.9,8.0,0000.0,0008.21,0005.06,0004.72
2023-10-10 19:50:00,SystemResetWarning,0821.1,5.00,000.00,028.2,024.4,000.0,036.5,029.8,8.1,0000.0,0008.08,0005.10,0004.77
2023-10-10 19:51:00,SystemResetWarning,0821.0,5.01,000.00,028.1,024.7,000.0,036.5,029.7,8.1,0000.0,0007.97,0005.15,0004.83
2023-10-10 19:52:00,SystemResetWarning,0821.0,4.99,000.00,028.1,025.1,000.0,036.5,029.6,8.1,0000.0,0008.04,0005.18,0004.86
2023-10-10 19:53:00,SystemResetWarning,0821.1,4.99,000.00,028.1,025.5,000.0,036.5,029.7,8.3,0000.0,0008.05,0005.18,0004.88
2023-10-10 19:54:00,SystemResetWarning,0821.1,5.00,000.00,028.1,025.9,000.0,036.5,029.8,8.3,0000.0,0008.21,0005.23,0004.91
2023-10-10 19:55:00,SystemResetWarning,0821.0,5.01,000.00,028.1,026.3,000.0,036.5,029.9,8.2,0000.0,0008.18,0005.26,0004.96
2023-10-10 19:56:00,SystemResetWarning,0821.1,5.00,000.00,028.2,026.6,000.0,036.6,030.0,7.5,0000.0,0008.30,0005.34,0005.04
2023-10-10 19:57:00,SystemResetWarning,0821.0,4.99,000.00,028.2,026.9,000.0,036.6,030.1,6.9,0000.0,0008.30,0005.40,0005.11
2023-10-10 19:58:00,SystemResetWarning,0821.0,4.99,000.00,028.3,027.0,000.0,036.6,030.2,6.8,0000.0,0008.84,0005.38,0005.10
2023-10-10 19:59:00,SystemResetWarning,0821.1,4.99,000.00,028.3,025.9,000.0,036.6,030.1,6.8,0000.0,0008.99,0005.34,0005.07
